Location: Balsareny
(41.8670°N, 1.8830°E)
Time: 12:07:29
(UTC+01:00)

Envisat - Pass Details

Date: 10 December 2021
Orbit: 764 x 766 km, 98.2° (Epoch: 16 January)

Event Time Altitude Azimuth Distance (km) Brightness Sun altitude
Rises 04:30:40 0° 33° (NNE) 3,238 6.6 -39.8°
Reaches altitude 10° 04:34:10 10° 58° (ENE) 2,306 6.0 -39.1°
Maximum altitude 04:36:47 14° 89° (E) 2,031 5.8 -38.6°
Drops below altitude 10° 04:39:24 10° 121° (ESE) 2,296 6.0 -38.2°
Sets 04:42:51 0° 146° (SE) 3,216 6.6 -37.5°
